| time (UTC) | temp F | wind direction | speed knots | gust knots | rain 1hr in | rain 24hr in | rain mn in | humidity % | barometer mb |
| 20260831145121 | 76 | 116 | 1.7 | 3.5 | 0.00 | 0.01 | 0.00 | 80 | 1018.8 |
| 20260831144143 | 75 | 35 | 1.7 | 4.3 | 0.00 | 0.01 | 0.00 | 82 | 1018.9 |
| 20260831143122 | 74 | 100 | 1.7 | 3.5 | 0.00 | 0.01 | 0.00 | 82 | 1018.7 |
| 20260831142122 | 74 | 82 | 1.7 | 3.5 | 0.00 | 0.01 | 0.00 | 84 | 1018.6 |
| 20260831141122 | 73 | 99 | 1.7 | 3.5 | 0.00 | 0.01 | 0.00 | 86 | 1018.6 |
| 20260831140123 | 73 | 95 | 2.6 | 4.3 | 0.00 | 0.01 | 0.00 | 86 | 1018.6 |
| 20260831135121 | 73 | 66 | 1.7 | 3.5 | 0.00 | 0.01 | 0.00 | 86 | 1018.6 |
| 20260831134121 | 72 | 66 | 1.7 | 3.5 | 0.00 | 0.01 | 0.00 | 86 | 1018.5 |
| 20260831133121 | 72 | 56 | 1.7 | 2.6 | 0.00 | 0.01 | 0.00 | 87 | 1018.5 |
| 20260831132124 | 73 | 104 | 1.7 | 3.5 | 0.00 | 0.01 | 0.00 | 86 | 1018.5 |
| 20260831131122 | 72 | 64 | 2.6 | 4.3 | 0.00 | 0.01 | 0.00 | 87 | 1018.4 |
| 20260831130123 | 72 | 25 | 1.7 | 2.6 | 0.00 | 0.01 | 0.00 | 88 | 1018.4 |
| 20260831125122 | 72 | 100 | 1.7 | 3.5 | 0.00 | 0.01 | 0.00 | 88 | 1018.4 |
| 20260831124122 | 72 | 53 | 1.7 | 3.5 | 0.00 | 0.01 | 0.00 | 89 | 1018.2 |
| 20260831123122 | 71 | 40 | 1.7 | 3.5 | 0.00 | 0.01 | 0.00 | 89 | 1018.1 |
| 20260831122121 | 71 | 78 | 2.6 | 4.3 | 0.00 | 0.01 | 0.00 | 89 | 1018.4 |
| 20260831121121 | 71 | 71 | 2.6 | 5.2 | 0.00 | 0.01 | 0.00 | 89 | 1018.4 |
| 20260831120144 | 71 | 64 | 1.7 | 3.5 | 0.00 | 0.01 | 0.00 | 90 | 1018.4 |
| 20260831115123 | 71 | 78 | 1.7 | 4.3 | 0.00 | 0.01 | 0.00 | 90 | 1018.1 |
| 20260831114121 | 70 | 247 | 1.7 | 5.2 | 0.00 | 0.01 | 0.00 | 91 | 1018.0 |
| 20260831113122 | 70 | 240 | 1.7 | 4.3 | 0.00 | 0.01 | 0.00 | 91 | 1018.0 |
| 20260831112122 | 70 | 96 | 1.7 | 4.3 | 0.00 | 0.01 | 0.00 | 91 | 1018.0 |
| 20260831111122 | 70 | 100 | 1.7 | 3.5 | 0.00 | 0.01 | 0.00 | 92 | 1018.0 |
| 20260831110121 | 70 | 98 | 1.7 | 4.3 | 0.00 | 0.01 | 0.00 | 92 | 1018.0 |
| 20260831105124 | 70 | 105 | 1.7 | 3.5 | 0.00 | 0.01 | 0.00 | 92 | 1017.8 |
| 20260831104126 | 70 | 14 | 1.7 | 4.3 | 0.00 | 0.01 | 0.00 | 92 | 1017.6 |
| 20260831103145 | 70 | 56 | 1.7 | 3.5 | 0.00 | 0.01 | 0.00 | 92 | 1017.5 |
| 20260831102143 | 70 | 82 | 1.7 | 3.5 | 0.00 | 0.01 | 0.00 | 92 | 1017.2 |
| 20260831101121 | 70 | 113 | 1.7 | 4.3 | 0.00 | 0.01 | 0.00 | 92 | 1017.2 |
| 20260831100142 | 70 | 99 | 2.6 | 6.1 | 0.00 | 0.01 | 0.00 | 93 | 1017.2 |
| 20260831095121 | 70 | 125 | 1.7 | 3.5 | 0.00 | 0.01 | 0.00 | 95 | 1017.2 |
| 20260831094121 | 70 | 30 | 2.6 | 6.1 | 0.00 | 0.01 | 0.00 | 96 | 1017.1 |
| 20260831093124 | 70 | 48 | 1.7 | 3.5 | 0.00 | 0.01 | 0.00 | 96 | 1017.1 |
| 20260831092124 | 70 | 21 | 1.7 | 5.2 | 0.00 | 0.01 | 0.00 | 96 | 1017.0 |
| 20260831091124 | 70 | 44 | 1.7 | 3.5 | 0.00 | 0.01 | 0.00 | 96 | 1016.8 |
| 20260831090123 | 70 | 48 | 0.9 | 2.6 | 0.00 | 0.01 | 0.00 | 95 | 1016.8 |
| 20260831085122 | 70 | 28 | 0.9 | 2.6 | 0.00 | 0.01 | 0.00 | 94 | 1016.7 |
| 20260831084121 | 71 | 127 | 1.7 | 3.5 | 0.00 | 0.01 | 0.00 | 93 | 1016.9 |
| 20260831083123 | 71 | 86 | 1.7 | 3.5 | 0.00 | 0.01 | 0.00 | 93 | 1016.7 |
| 20260831082122 | 71 | 47 | 1.7 | 2.6 | 0.00 | 0.01 | 0.00 | 93 | 1016.8 |
| 20260831081125 | 71 | 114 | 0.9 | 2.6 | 0.00 | 0.01 | 0.00 | 92 | 1016.8 |
| 20260831080146 | 71 | 321 | 0.9 | 2.6 | 0.00 | 0.01 | 0.00 | 92 | 1016.8 |
| 20260831075126 | 71 | 322 | 0.9 | 3.5 | 0.00 | 0.01 | 0.00 | 92 | 1016.8 |
| 20260831074121 | 71 | 307 | 1.7 | 3.5 | 0.00 | 0.01 | 0.00 | 92 | 1016.8 |
| 20260831073121 | 71 | 350 | 1.7 | 3.5 | 0.00 | 0.01 | 0.00 | 93 | 1017.0 |
| 20260831072121 | 71 | 321 | 0.9 | 1.7 | 0.00 | 0.01 | 0.00 | 93 | 1017.0 |
| 20260831071121 | 71 | 360 | 0.9 | 2.6 | 0.00 | 0.01 | 0.00 | 93 | 1017.0 |
| 20260831070121 | 71 | 326 | 1.7 | 2.6 | 0.00 | 0.01 | 0.00 | 93 | 1017.0 |
| 20260831065122 | 71 | 293 | 0.9 | 2.6 | 0.00 | 0.01 | 0.00 | 94 | 1016.9 |
| 20260831064121 | 70 | 24 | 0.9 | 1.7 | 0.00 | 0.01 | 0.00 | 96 | 1016.8 |
| 20260831063142 | 70 | 291 | 0.0 | 2.6 | 0.00 | 0.01 | 0.00 | 96 | 1016.8 |
| 20260831062121 | 71 | 281 | 0.0 | 1.7 | 0.00 | 0.01 | 0.00 | 97 | 1016.8 |
| 20260831061121 | 71 | 282 | 0.9 | 2.6 | 0.00 | 0.01 | 0.00 | 97 | 1016.9 |
| 20260831060121 | 71 | 292 | 0.9 | 2.6 | 0.00 | 0.01 | 0.00 | 97 | 1016.9 |
| 20260831055121 | 71 | 293 | 0.9 | 2.6 | 0.00 | 0.01 | 0.00 | 98 | 1016.9 |
| 20260831054144 | 71 | 292 | 0.0 | 2.6 | 0.00 | 0.01 | 0.00 | 99 | 1016.9 |
| 20260831053121 | 71 | 3 | 0.0 | 1.7 | 0.00 | 0.01 | 0.00 | 99 | 1016.9 |
| 20260831052123 | 72 | 223 | 0.0 | 0.9 | 0.00 | 0.01 | 0.00 | 99 | 1017.0 |
| 20260831051121 | 72 | 262 | 0.0 | 1.7 | 0.00 | 0.01 | 0.00 | 99 | 1017.0 |
| 20260831050122 | 72 | 287 | 0.0 | 1.7 | 0.00 | 0.01 | 0.00 | 99 | 1017.0 |
| 20260831045122 | 73 | 3 | 0.0 | 1.7 | 0.00 | 0.01 | 0.00 | 99 | 1016.9 |
| 20260831044123 | 73 | 311 | 0.0 | 2.6 | 0.00 | 0.01 | 0.00 | 99 | 1016.9 |
| 20260831043122 | 73 | 337 | 0.0 | 0.9 | 0.00 | 0.01 | 0.00 | 99 | 1016.7 |
| 20260831042124 | 73 | 257 | 0.9 | 1.7 | 0.00 | 0.01 | 0.00 | 98 | 1016.6 |
| 20260831041122 | 73 | 299 | 2.6 | 4.3 | 0.00 | 0.01 | 0.00 | 99 | 1016.6 |
| 20260831040122 | 73 | 324 | 2.6 | 4.3 | 0.00 | 0.01 | 0.00 | 99 | 1016.6 |
| 20260831035123 | 73 | 299 | 1.7 | 4.3 | 0.00 | 0.01 | 0.01 | 99 | 1016.6 |
| 20260831034121 | 73 | 301 | 0.9 | 2.6 | 0.00 | 0.01 | 0.01 | 99 | 1016.6 |
| 20260831033121 | 73 | 322 | 1.7 | 2.6 | 0.00 | 0.01 | 0.01 | 99 | 1016.6 |
| 20260831032121 | 72 | 330 | 0.9 | 1.7 | 0.00 | 0.01 | 0.01 | 99 | 1016.5 |
| 20260831031121 | 73 | 337 | 0.0 | 0.9 | 0.00 | 0.01 | 0.01 | 99 | 1016.6 |
| 20260831030121 | 73 | 334 | 0.0 | 0.9 | 0.01 | 0.01 | 0.01 | 99 | 1016.6 |
| 20260831025123 | 73 | 293 | 0.0 | 0.0 | 0.01 | 0.01 | 0.01 | 99 | 1016.9 |
| 20260831024144 | 73 | 337 | 1.7 | 2.6 | 0.01 | 0.01 | 0.01 | 99 | 1017.1 |
| 20260831023122 | 73 | 327 | 1.7 | 3.5 | 0.01 | 0.01 | 0.01 | 99 | 1017.2 |
| 20260831022121 | 73 | 313 | 1.7 | 3.5 | 0.01 | 0.01 | 0.01 | 99 | 1017.2 |
| 20260831021121 | 74 | 317 | 0.9 | 2.6 | 0.01 | 0.01 | 0.01 | 99 | 1017.2 |
| 20260831020144 | 74 | 360 | 0.0 | 1.7 | 0.00 | 0.00 | 0.00 | 99 | 1017.2 |
| 20260831015124 | 75 | 45 | 0.0 | 0.0 | 0.00 | 0.00 | 0.00 | 99 | 1017.2 |
| 20260831014121 | 75 | 314 | 0.0 | 1.7 | 0.00 | 0.00 | 0.00 | 99 | 1017.1 |
| 20260831013121 | 75 | 311 | 0.9 | 3.5 | 0.00 | 0.00 | 0.00 | 99 | 1016.9 |
| 20260831012122 | 75 | 247 | 0.0 | 1.7 | 0.00 | 0.00 | 0.00 | 99 | 1016.8 |
| 20260831011121 | 75 | 247 | 0.0 | 0.9 | 0.00 | 0.00 | 0.00 | 99 | 1016.8 |
| 20260831010122 | 75 | 215 | 0.0 | 1.7 | 0.00 | 0.00 | 0.00 | 99 | 1016.8 |
| 20260831005123 | 75 | 239 | 0.9 | 1.7 | 0.00 | 0.00 | 0.00 | 99 | 1016.6 |
| 20260831004123 | 76 | 243 | 1.7 | 3.5 | 0.00 | 0.00 | 0.00 | 98 | 1016.5 |
| 20260831003143 | 76 | 223 | 0.9 | 3.5 | 0.00 | 0.00 | 0.00 | 96 | 1016.4 |
| 20260831002124 | 76 | 226 | 1.7 | 3.5 | 0.00 | 0.00 | 0.00 | 94 | 1016.2 |
| 20260831001143 | 77 | 259 | 1.7 | 3.5 | 0.00 | 0.00 | 0.00 | 92 | 1016.2 |
| 20260831000122 | 77 | 232 | 0.9 | 2.6 | 0.00 | 0.00 | 0.00 | 91 | 1016.2 |
| 20260830235143 | 77 | 215 | 0.9 | 2.6 | 0.00 | 0.00 | 0.00 | 90 | 1016.1 |
| 20260830234121 | 77 | 251 | 1.7 | 4.3 | 0.00 | 0.00 | 0.00 | 90 | 1016.1 |
| 20260830233121 | 77 | 230 | 0.9 | 3.5 | 0.00 | 0.00 | 0.00 | 90 | 1016.1 |
| 20260830232121 | 77 | 221 | 0.9 | 2.6 | 0.00 | 0.00 | 0.00 | 90 | 1016.0 |
| 20260830231121 | 77 | 240 | 1.7 | 2.6 | 0.00 | 0.00 | 0.00 | 89 | 1016.0 |
| 20260830230121 | 78 | 245 | 0.9 | 2.6 | 0.00 | 0.00 | 0.00 | 89 | 1016.0 |
| 20260830225122 | 78 | 214 | 0.9 | 2.6 | 0.00 | 0.00 | 0.00 | 88 | 1016.0 |
| 20260830224121 | 78 | 224 | 1.7 | 3.5 | 0.00 | 0.00 | 0.00 | 87 | 1015.9 |
| 20260830223121 | 78 | 220 | 1.7 | 4.3 | 0.00 | 0.00 | 0.00 | 87 | 1016.2 |
| 20260830222122 | 79 | 245 | 1.7 | 3.5 | 0.00 | 0.00 | 0.00 | 85 | 1016.2 |
| 20260830221142 | 79 | 251 | 1.7 | 3.5 | 0.00 | 0.00 | 0.00 | 84 | 1016.4 |
| 20260830220122 | 80 | 192 | 1.7 | 3.5 | 0.00 | 0.00 | 0.00 | 83 | 1016.4 |
| 20260830215121 | 80 | 212 | 1.7 | 2.6 | 0.00 | 0.00 | 0.00 | 82 | 1016.2 |
| 20260830214123 | 81 | 221 | 2.6 | 3.5 | 0.00 | 0.00 | 0.00 | 80 | 1016.2 |
| 20260830213142 | 80 | 244 | 1.7 | 4.3 | 0.00 | 0.00 | 0.00 | 81 | 1016.2 |
| 20260830212123 | 80 | 222 | 2.6 | 4.3 | 0.00 | 0.00 | 0.00 | 81 | 1016.2 |
| 20260830211122 | 80 | 244 | 1.7 | 3.5 | 0.00 | 0.00 | 0.00 | 82 | 1016.5 |
| 20260830210124 | 80 | 194 | 2.6 | 4.3 | 0.00 | 0.00 | 0.00 | 83 | 1016.5 |
| 20260830205122 | 79 | 227 | 2.6 | 4.3 | 0.00 | 0.00 | 0.00 | 84 | 1016.5 |
| 20260830204122 | 79 | 228 | 2.6 | 4.3 | 0.00 | 0.00 | 0.00 | 84 | 1016.5 |
| 20260830203123 | 79 | 218 | 2.6 | 5.2 | 0.00 | 0.00 | 0.00 | 84 | 1016.7 |
| 20260830202143 | 79 | 242 | 2.6 | 6.1 | 0.00 | 0.00 | 0.00 | 82 | 1016.7 |
| 20260830201143 | 79 | 185 | 2.6 | 5.2 | 0.00 | 0.00 | 0.00 | 81 | 1016.9 |
| 20260830200122 | 79 | 251 | 2.6 | 6.1 | 0.00 | 0.00 | 0.00 | 81 | 1016.9 |
| 20260830195143 | 80 | 245 | 3.5 | 5.2 | 0.00 | 0.00 | 0.00 | 80 | 1016.8 |
| 20260830194144 | 79 | 205 | 3.5 | 7.8 | 0.00 | 0.00 | 0.00 | 79 | 1017.0 |
| 20260830193121 | 79 | 235 | 2.6 | 5.2 | 0.00 | 0.00 | 0.00 | 80 | 1017.1 |
| 20260830192121 | 78 | 228 | 3.5 | 6.1 | 0.00 | 0.00 | 0.00 | 79 | 1017.4 |
| 20260830191121 | 80 | 295 | 2.6 | 4.3 | 0.00 | 0.00 | 0.00 | 77 | 1017.6 |
| 20260830190121 | 79 | 262 | 2.6 | 4.3 | 0.00 | 0.00 | 0.00 | 77 | 1017.6 |
| 20260830185121 | 78 | 222 | 3.5 | 6.1 | 0.00 | 0.00 | 0.00 | 77 | 1017.8 |
| 20260830184121 | 79 | 247 | 2.6 | 6.1 | 0.00 | 0.00 | 0.00 | 75 | 1017.9 |
| 20260830183124 | 80 | 192 | 2.6 | 7.0 | 0.00 | 0.00 | 0.00 | 74 | 1018.0 |
| 20260830182144 | 80 | 253 | 3.5 | 5.2 | 0.00 | 0.00 | 0.00 | 72 | 1018.2 |
| 20260830181121 | 80 | 254 | 3.5 | 5.2 | 0.00 | 0.00 | 0.00 | 73 | 1018.2 |
| 20260830180122 | 80 | 257 | 3.5 | 6.1 | 0.00 | 0.00 | 0.00 | 71 | 1018.2 |
| 20260830175142 | 80 | 243 | 3.5 | 6.1 | 0.00 | 0.00 | 0.00 | 70 | 1018.2 |
| 20260830174121 | 80 | 234 | 2.6 | 6.1 | 0.00 | 0.00 | 0.00 | 71 | 1018.4 |
| 20260830173121 | 80 | 226 | 3.5 | 7.0 | 0.00 | 0.00 | 0.00 | 72 | 1018.5 |
| 20260830172123 | 81 | 248 | 2.6 | 5.2 | 0.00 | 0.00 | 0.00 | 71 | 1018.5 |
| 20260830171123 | 81 | 232 | 3.5 | 5.2 | 0.00 | 0.00 | 0.00 | 70 | 1018.7 |
| 20260830170123 | 81 | 251 | 3.5 | 7.0 | 0.00 | 0.00 | 0.00 | 70 | 1018.7 |
| 20260830165143 | 84 | 252 | 3.5 | 6.1 | 0.00 | 0.00 | 0.00 | 66 | 1018.8 |
| 20260830164122 | 83 | 220 | 3.5 | 6.1 | 0.00 | 0.00 | 0.00 | 68 | 1018.8 |
| 20260830163122 | 82 | 261 | 4.3 | 7.8 | 0.00 | 0.00 | 0.00 | 68 | 1019.1 |
| 20260830162143 | 82 | 243 | 3.5 | 7.8 | 0.00 | 0.00 | 0.00 | 66 | 1019.1 |
| 20260830161122 | 83 | 247 | 3.5 | 6.1 | 0.00 | 0.00 | 0.00 | 64 | 1019.2 |
| 20260830160124 | 82 | 214 | 3.5 | 5.2 | 0.00 | 0.00 | 0.00 | 66 | 1019.2 |
| 20260830155145 | 81 | 258 | 3.5 | 7.0 | 0.00 | 0.00 | 0.00 | 68 | 1019.2 |
| 20260830154121 | 81 | 250 | 4.3 | 7.0 | 0.00 | 0.00 | 0.00 | 66 | 1019.5 |
| 20260830153121 | 82 | 259 | 3.5 | 6.1 | 0.00 | 0.00 | 0.00 | 65 | 1019.6 |
| 20260830152121 | 80 | 247 | 4.3 | 7.0 | 0.00 | 0.00 | 0.00 | 67 | 1019.7 |
| 20260830151142 | 79 | 243 | 4.3 | 9.6 | 0.00 | 0.00 | 0.00 | 67 | 1019.9 |
| 20260830150142 | 81 | 247 | 4.3 | 7.0 | 0.00 | 0.00 | 0.00 | 64 | 1019.9 |